Location: *
(46.1866°S, 178.5290°W)
Time: 11:38:06
(UTC+00:00)

Cosmos 2219 Rocket - Pass Details

Date: 19 May 2021
Orbit: 827 x 847 km, 71.0° (Epoch: 13 June)

Event Time Altitude Azimuth Distance (km) Brightness Sun altitude
Rises 06:09:02 0° 285° (WNW) 3,385 7.1 -17.3°
Reaches altitude 10° 06:12:15 10° 266° (W) 2,456 5.8 -17.8°
Maximum altitude 06:16:06 19° 223° (SW) 1,929 4.4 -18.5°
Drops below altitude 10° 06:19:59 10° 179° (S) 2,468 4.5 -19.1°
Enters shadow 06:22:18 - 165° (SSE) 3,114 4.9 -19.5°
